RH
87 84 90 94 79 43 39 61 33 39 30 45 67 68 64 50 34 32 32 32 38 38 34 40 44 55 46 55 55 67 76 78 85 62 78 84 82 74 85 96 85 95 99 83
85 81 74 67 83 60 54 77 78 46 32 42 46 41 38 36 34 38 39 43 43 41 44 54 48 40 32 55 55 72 75 89 97 70 62 81 94 95 91 93 98 97 99 82
88 87 81 65 63 62 56 72 47 60 55 50 42 57 57 54 45 44 39 41 38 44 54 50 62 46 33 56 52 45 56 88 74 70 61 80 100 100 95 84 100 90 92 70
92 88 75 69 63 58 63 80 70 64 47 61 67 60 60 62 62 51 42 52 52 60 66 67 65 51 47 46 49 48 79 94 91 76 51 74 70 80 97 100 92 89 71 82
97 86 86 79 70 60 71 77 88 89 90 79 77 74 80 75 67 66 68 72 63 70 86 78 87 62 56 65 59 62 90 92 91 91 78 67 69 74 87 97 100 99 100 98
97 94 86 84 80 71 80 92 88 89 80 87 84 81 70 62 65 62 58 64 92 92 78 71 67 80 84 77 95 83 94 94 95 91 77 82 95 89 97 100 100 90 100 85
93 88 88 84 84 75 68 88 94 98 89 92 78 67 64 65 71 86 78 83 96 78 92 95 96 96 92 96 91 86 94 94 92 94 94 98 85 90 85 90 100 99 98 98
87 89 84 79 74 79 72 81 79 99 100 82 78 79 88 90 87 93 88 79 83 90 98 99 96 81 88 85 91 88 93 93 95 95 94 91 93 92 97 96 95 99 98 96
86 86 80 74 73 78 82 82 86 92 97 93 95 99 94 96 98 88 70 75 77 86 99 90 94 92 76 82 80 77 96 92 94 95 95 96 99 92 88 97 97 100 96 96
88 80 75 73 83 81 78 92 97 89 99 96 97 97 98 97 96 95 92 91 79 81 99 97 90 89 84 95 100 99 91 94 95 96 98 96 90 91 91 92 90 93 93 97
79 75 74 87 83 86 80 100 97 80 98 96 95 96 98 95 94 98 87 80 78 95 98 98 92 98 99 93 98 99 98 98 96 94 99 99 87 82 91 94 97 94 89 88
74 74 74 85 80 87 79 90 84 80 82 97 92 88 89 97 96 96 93 90 97 91 97 95 95 90 92 100 100 88 94 99 100 99 98 97 97 98 97 97 98 93 93 86
76 72 86 85 92 94 72 85 86 77 91 96 91 94 87 76 95 98 98 90 95 96 97 96 94 96 93 99 99 97 91 94 96 97 94 98 98 86 89 93 98 87 83 86
73 85 90 92 98 70 54 70 94 83 80 92 96 80 84 75 77 93 97 96 89 95 92 96 95 95 78 98 96 90 97 90 100 98 91 91 97 95 97 87 81 81 84 83
87 84 94 85 75 50 43 56 86 93 74 97 96 86 57 72 70 70 85 95 94 94 96 96 98 94 85 95 87 98 99 100 99 98 97 99 94 96 95 94 91 92 93 91
84 84 88 80 80 81 79 70 50 87 94 92 98 79 62 52 78 62 66 80 92 96 96 98 98 96 90 98 99 97 98 96 99 100 98 98 95 97 97 100 94 93 98 98
100 99 98 86 68 41 66 80 72 87 86 94 97 91 51 53 64 83 77 62 95 95 97 97 96 93 78 97 99 94 96 97 98 98 98 91 93 98 95 94 90 98 93 92
90 82 72 67 61 63 61 53 64 50 45 55 94 81 66 54 80 96 84 92 90 86 97 90 90 79 84 98 97 97 95 92 93 94 95 96 97 94 87 87 91 96 95 89
74 54 25 24 48 61 64 55 26 32 48 93 92 99 99 58 64 86 90 92 92 76 84 87 60 79 100 99 100 98 96 100 98 97 91 84 93 92 89 92 94 100 97 94
42 15 24 67 55 55 29 27 58 68 71 83 98 77 100 80 81 93 90 94 96 100 97 64 91 100 96 97 98 97 95 96 96 99 88 88 85 86 93 98 95 95 97 97
17 35 58 31 26 29 52 84 90 85 93 89 97 97 99 69 100 100 98 98 94 99 96 83 98 99 96 91 97 85 81 82 84 85 90 92 91 95 92 88 88 89 91 94
35 28 29 29 56 74 72 92 76 92 100 93 100 96 89 90 83 96 91 93 88 100 88 89 100 90 84 96 96 90 85 88 89 85 88 87 88 91 94 94 95 95 97 98
18 35 71 78 86 92 98 100 93 99 89 95 98 97 97 87 74 92 91 91 100 78 98 100 92 93 84 92 93 90 90 89 91 94 93 91 92 92 95 97 96 95 100 95
81 80 93 95 100 100 100 100 99 86 99 97 100 100 98 94 87 99 77 87 85 93 100 96 93 86 87 94 90 94 92 96 97 98 97 98 100 100 96 97 96 98 100 96
90 85 100 100 95 90 96 92 95 85 93 96 98 93 84 93 87 88 82 81 97 96 92 91 92 89 94 93 85 92 94 94 100 98 100 100 100 100 100 94 96 98 99 95
86 92 96 87 92 94 96 99 100 84 98 91 85 90 89 96 98 91 100 91 98 90 93 85 84 87 92 93 89 94 98 98 100 100 100 100 100 100 100 100 94 90 91 96
90 100 83 98 100 100 99 99 93 83 90 98 94 92 100 93 94 97 98 100 92 86 87 77 79 86 85 88 93 94 90 99 100 98 100 100 100 98 100 100 87 86 91 86
Wind_Speed
5 1 2 5 9 12 7 3 1 2 3 3 2 2 3 2 1 1 2 2 5 4 2 3 5 7 6 7 6 6 5 4 3 7 2 2 3 6 4 3 6 3 1 8
5 1 2 4 7 10 3 2 1 2 2 1 1 3 2 1 1 3 2 3 5 4 5 3 5 5 3 8 8 8 6 1 1 6 5 4 3 4 4 4 3 5 6 7
6 3 1 3 5 7 4 2 1 3 4 1 4 2 3 2 0 3 4 4 3 3 5 6 5 3 3 6 7 13 9 4 8 11 8 4 2 4 4 5 3 5 7 9
7 6 2 1 3 5 2 2 2 1 1 2 3 1 1 3 4 3 2 2 4 6 5 8 8 9 8 5 8 12 7 6 7 10 7 4 4 5 5 7 7 6 12 8
10 6 3 1 4 3 2 2 2 2 1 1 4 4 5 5 4 4 4 5 8 7 8 10 17 7 6 12 5 7 5 11 9 7 11 12 12 13 7 4 1 4 3 7
10 7 4 1 1 1 3 2 2 4 3 2 3 4 5 3 3 5 7 4 3 6 11 8 11 10 10 6 5 7 6 4 5 13 5 8 12 12 4 1 1 5 4 5
10 7 4 4 2 2 3 3 3 3 3 3 4 2 3 6 5 8 4 5 5 3 3 5 4 6 9 7 10 11 5 11 5 4 3 9 1 2 4 4 1 1 1 1
9 7 6 4 2 4 5 6 4 3 2 2 5 6 4 3 4 3 4 4 4 4 2 3 3 3 4 5 8 9 8 8 4 3 5 2 2 5 2 3 3 1 2 1
8 7 5 3 4 4 6 7 8 3 2 2 3 1 1 2 2 4 3 2 3 1 2 2 3 4 3 5 7 5 6 11 6 2 4 7 2 2 7 1 2 1 1 3
8 5 4 4 4 4 6 6 7 4 2 2 4 2 1 2 2 2 3 5 4 1 1 2 4 6 2 2 2 6 4 4 4 4 2 2 3 8 6 4 3 3 4 3
6 5 4 5 4 5 5 6 6 3 3 3 8 5 3 4 2 1 3 3 2 1 1 1 2 1 1 4 2 3 3 4 3 3 2 3 9 1 0 3 2 4 4 5
5 4 3 6 6 5 6 5 7 7 10 2 14 16 14 5 4 2 2 2 2 2 1 3 2 2 3 3 0 4 1 2 2 3 2 2 3 4 3 4 2 3 4 6
4 3 4 7 6 7 6 10 9 6 6 4 3 2 9 16 6 4 1 3 3 3 3 2 2 5 3 2 2 2 6 6 2 1 5 4 5 4 6 5 3 5 6 7
4 5 8 9 11 9 8 9 6 6 6 3 1 11 4 14 14 6 5 11 8 4 2 3 3 3 5 2 2 3 2 4 4 1 3 4 2 3 4 7 8 7 9 8
8 9 13 14 14 16 22 22 15 9 2 3 2 2 17 6 18 20 17 16 4 2 2 3 2 2 3 2 3 3 4 2 1 2 3 3 5 5 5 5 6 8 6 7
8 12 22 23 14 7 3 4 13 13 4 3 2 2 11 20 9 17 19 13 8 3 3 2 3 5 3 2 2 3 4 4 1 3 6 4 6 7 4 3 8 14 10 13
19 27 25 20 13 12 12 1 12 7 2 3 3 2 8 20 7 7 4 15 3 3 2 3 2 4 4 2 2 6 7 5 4 5 5 4 4 4 14 12 14 13 14 13
29 31 29 25 21 14 22 29 10 7 11 8 3 3 3 17 4 3 8 2 3 5 3 2 2 2 3 3 4 5 5 7 3 7 9 6 11 11 12 14 13 11 11 15
24 21 15 8 11 7 6 7 20 27 12 3 3 4 3 12 4 2 3 2 3 1 3 2 2 2 4 3 4 6 7 3 6 8 11 8 5 7 11 12 13 3 7 15
14 4 7 3 6 6 3 5 8 11 9 5 2 4 2 4 3 3 3 2 2 2 2 2 3 1 4 4 4 5 7 10 12 5 8 8 9 9 8 7 14 16 17 17
4 5 3 3 8 6 7 4 5 4 5 4 3 2 3 4 2 2 2 0 2 3 3 3 2 2 4 5 6 15 16 15 15 14 15 14 15 10 11 13 15 16 16 17
11 19 12 7 11 5 7 3 4 5 1 4 3 3 2 3 4 3 4 2 3 1 1 3 2 3 6 6 7 16 17 17 16 16 16 16 15 16 16 16 16 16 17 19
11 10 6 4 5 12 7 7 4 4 4 2 3 4 3 4 4 2 4 5 0 2 4 1 4 3 6 6 8 13 17 16 16 16 15 16 17 17 17 17 18 20 19 21
5 5 8 4 5 4 2 2 3 3 2 4 2 2 2 2 4 0 5 2 2 4 4 3 3 5 8 7 13 13 13 15 15 17 17 17 18 18 20 20 20 20 19 22
4 5 5 3 1 2 3 3 3 2 3 2 2 2 2 3 4 3 2 6 3 3 4 3 4 8 8 8 14 14 15 16 16 19 18 18 20 19 20 21 22 21 21 19
5 7 4 2 2 4 3 2 3 3 1 1 2 2 4 4 2 5 1 3 3 3 3 6 9 11 7 11 18 19 20 19 19 21 21 20 19 19 21 23 22 20 17 18
6 3 3 1 1 3 3 2 3 8 2 1 2 5 3 2 4 3 2 4 3 7 8 8 13 10 17 21 21 19 20 20 19 20 19 20 23 24 22 18 20 18 19 20
Wind_Direction
208 256 10 12 1 1 11 62 7 22 360 48 70 146 203 237 258 81 275 217 223 213 213 260 234 225 219 168 159 176 207 150 206 229 289 169 148 199 143 145 269 218 215 269
195 197 44 20 16 16 20 85 268 1 28 227 225 279 286 269 216 209 209 253 214 188 197 272 222 235 224 171 164 176 192 276 14 328 351 3 190 227 156 128 72 229 261 270
187 188 196 22 31 14 28 89 322 331 53 44 152 168 241 247 179 265 226 249 239 217 220 227 267 229 256 188 211 223 164 158 176 237 216 149 186 225 215 147 151 228 223 266
173 173 177 90 39 2 17 40 240 183 254 220 136 152 246 221 270 235 210 272 221 223 264 265 249 254 265 239 234 246 163 226 192 251 248 197 224 199 205 184 205 202 266 208
174 168 166 335 348 348 115 150 154 30 249 214 156 203 211 205 217 188 248 230 273 267 249 251 277 249 235 247 245 238 190 240 208 244 245 225 237 233 205 239 227 283 118 274
166 161 159 125 272 59 111 148 137 105 250 159 117 218 207 204 104 256 234 237 268 258 271 256 246 256 267 228 239 239 212 215 206 247 222 243 244 227 183 190 191 153 182 224
167 167 161 145 124 111 126 144 129 99 258 186 212 211 209 282 258 255 245 271 249 251 323 283 260 246 249 235 239 216 234 225 201 235 122 237 246 340 256 145 128 220 44 327
172 170 166 172 199 205 200 182 155 141 247 243 276 266 244 275 272 277 249 238 222 338 344 286 280 300 340 262 245 241 231 252 234 224 214 105 61 353 20 83 290 275 102 12
168 169 177 194 196 206 201 191 179 141 120 299 321 309 345 263 242 311 252 11 321 58 253 283 275 236 237 295 322 304 261 227 217 150 185 204 67 353 344 187 287 310 57 11
164 175 181 186 176 183 175 154 168 132 152 36 10 74 249 339 287 280 297 334 333 35 284 256 247 252 233 269 15 331 327 341 225 198 130 77 316 304 301 97 219 39 36 22
166 171 175 163 150 166 173 127 168 164 101 27 42 34 40 351 17 128 290 349 333 303 265 226 283 114 154 84 51 345 31 336 2 294 114 177 337 301 114 234 19 43 10 5
159 164 173 171 149 173 176 133 129 110 81 117 104 71 48 17 276 256 301 212 259 245 15 339 347 52 41 174 325 11 41 11 351 24 76 241 331 88 15 23 18 359 340 339
149 154 150 145 140 154 180 133 131 107 104 49 71 25 22 25 7 295 147 298 272 46 20 6 73 80 348 53 40 99 358 11 53 248 354 9 26 33 22 1 351 341 344 329
135 132 131 130 122 128 141 107 102 97 106 106 23 46 33 32 33 29 327 269 283 79 28 68 57 75 27 54 82 70 335 337 337 347 326 331 8 27 340 340 341 342 333 323
122 120 130 127 119 117 105 88 72 67 99 144 160 144 22 29 38 38 38 45 66 47 67 53 50 62 85 43 63 35 341 327 27 265 270 220 263 306 327 331 324 322 313 311
130 134 127 119 110 117 105 61 39 34 50 96 98 135 16 9 13 51 41 42 41 56 73 57 51 349 92 81 77 271 312 331 214 296 295 239 272 295 311 292 301 310 299 308
99 124 110 101 101 98 62 0 309 348 59 66 106 37 357 356 2 6 58 47 50 69 80 60 44 15 46 62 53 311 320 311 295 302 326 345 353 292 319 312 314 319 317 317
112 108 105 98 92 81 47 35 55 83 83 53 62 336 354 7 344 346 12 43 29 27 78 60 51 22 51 61 277 296 305 319 320 330 325 259 297 311 321 328 324 326 319 323
122 111 107 84 41 46 40 23 46 60 63 94 58 3 320 341 350 351 350 28 60 60 68 38 71 36 45 275 290 308 316 276 277 301 305 303 306 302 306 311 312 287 295 308
129 106 49 50 11 356 353 20 24 26 20 36 57 331 305 337 326 324 3 16 40 57 56 74 65 107 263 272 263 277 294 304 316 318 318 315 314 310 301 285 301 298 294 304
74 70 74 57 32 53 40 46 42 358 27 14 323 14 327 322 335 312 31 170 8 61 317 86 33 337 271 281 302 317 318 311 309 303 290 292 289 286 295 300 300 299 299 298
95 109 97 46 29 37 68 17 7 40 28 327 357 318 285 298 349 31 352 94 29 52 308 69 14 259 270 302 293 301 313 313 307 308 300 300 297 296 293 293 293 294 295 301
74 55 52 28 336 41 54 357 335 347 336 333 329 317 330 333 29 44 44 57 129 329 39 223 218 262 299 295 292 302 308 310 305 304 303 301 300 301 297 294 296 301 301 305
59 55 36 69 8 25 187 231 255 260 270 313 343 305 25 330 27 267 68 266 44 44 29 266 259 258 292 289 304 307 306 305 301 303 305 300 297 298 302 300 304 304 296 304
68 54 54 61 257 313 267 282 295 275 307 8 360 8 38 353 53 36 48 23 1 192 237 244 274 292 293 303 312 307 303 304 298 302 298 296 301 300 297 306 309 307 305 303
71 47 43 348 34 315 329 315 291 296 338 69 49 67 47 20 98 44 57 93 247 257 241 290 301 303 297 300 306 301 298 298 294 296 297 298 296 295 298 300 305 305 304 303
55 11 354 69 284 242 280 296 290 323 70 59 77 53 234 329 35 359 183 202 235 292 297 300 300 302 307 305 301 298 300 298 296 297 297 298 300 305 304 290 305 308 308 307